Regional Weather Roundup
Issued by NWS

Home | Current Version | Previous Version | Text Only | Print | Product List | Glossary Off
Versions: 1 2 3 4 5 6 7 8 9 10 11 12 13 14 15 16 17 18 19 20 21 22 23 24 25 26 27 28 29 30 31 32 33 34 35 36 37 38 39 40 41 42 43 44 45 46 47 48 49 50

000
ASUS43 KMKX 241300
RWRWI

WISCONSIN REGIONAL WEATHER ROUNDUP
NATIONAL WEATHER SERVICE MILWAUKEE/SULLIVAN WI
800 AM CDT MON APR 24 2017

NOTE: "FAIR" INDICATES FEW OR NO CLOUDS BELOW 12,000 FEET WITH NO
SIGNIFICANT WEATHER AND/OR OBSTRUCTIONS TO VISIBILITY.

WIZ001-002-006>008-014>016-023>028-241400-
NORTHWEST WISCONSIN

CITY           SKY/WX    TMP DP  RH WIND       PRES   REMARKS
SUPERIOR ARPT  CLOUDY    35  29  77 E16G24    29.94S WCI  25
ASHLAND        MOSUNNY   37  24  59 NE12      29.95F WCI  29
HAYWARD        CLOUDY    40  31  70 SE6       29.89F
SIREN          CLOUDY    41  36  83 CALM      29.85F
CUMBERLAND     CLOUDY    37  34  87 SE10      29.87F WCI  30
RICE LAKE      CLOUDY    40  34  78 SE12      29.90F WCI  34
CHETEK         CLOUDY    39  34  82 SE8       29.91S WCI  34
LADYSMITH      CLOUDY    38  32  77 SE7       29.94S WCI  33
EAU CLAIRE     NOT AVBL
MENOMONIE      PTSUNNY   42  38  83 E7        29.90R
NEW RICHMOND   CLOUDY    44  38  78 E9        29.85F
OSCEOLA        CLOUDY    45  39  79 E9        29.86F
$$

WIZ003>005-009-010-017-018-241400-
NORTH CENTRAL WISCONSIN

CITY           SKY/WX    TMP DP  RH WIND       PRES   REMARKS
MANITOWISH WTR CLOUDY    34  24  68 SE9       29.95S WCI  26
ARBOR VITAE    CLOUDY    37  27  68 SE12      29.96R WCI  29
WOODRUFF       CLOUDY    37  27  68 SE12      29.96R WCI  29
RHINELANDER    MOSUNNY   35  26  69 SE12      29.99R WCI  27
EAGLE RIVER    MOSUNNY   32  23  68 SE8       29.99S WCI  25
LAND O LAKES   MOSUNNY   31  22  69 SE6       30.00S WCI  25
PHILLIPS       CLOUDY    36  28  75 SE9       29.93F WCI  29
TOMAHAWK       MOSUNNY   33  26  75 SE5       29.99S WCI  28
MEDFORD        MOSUNNY   35  29  79 SE10      29.96S WCI  27
MERRILL        MOSUNNY   33  27  77 SE8       30.00S WCI  27
$$

WIZ029-030-035-036-043>047-241400-
CENTRAL WISCONSIN

CITY           SKY/WX    TMP DP  RH WIND       PRES   REMARKS
WAUSAU         CLOUDY    35  28  75 SE12      29.98F WCI  27
MOSINEE        PTSUNNY   36  30  80 E8        30.00F WCI  29
MARSHFIELD     CLOUDY    37  30  75 E12       29.96S WCI  29
STEVENS POINT  CLOUDY    35  29  79 E9        30.01S WCI  28
WAUPACA        SUNNY     39  32  73 E6        30.03S
WAUTOMA        NOT AVBL
WISC RAPIDS    MOSUNNY   40  31  70 SE7       29.99F
CAMP DOUGLAS   NOT AVBL
$$

WIZ011>013-019>022-031-037>040-048>050-241400-
NORTHEAST WISCONSIN

CITY           SKY/WX    TMP DP  RH WIND       PRES   REMARKS
ANTIGO         MOSUNNY   32  28  83 E8        30.02R WCI  25
SHAWANO        CLOUDY    37  32  80 E6        30.05R WCI  33
OCONTO         MOSUNNY   37  32  79 NE3       30.05S
STURGEON BAY   SUNNY     42  35  76 SE6       30.06S
GREEN BAY      SUNNY     43  37  79 E7        30.04R
MANITOWOC      NOT AVBL
APPLETON       MOSUNNY   39  28  65 E5        30.01R
CLINTONVILLE   CLOUDY    36  32  87 E7        30.03S WCI  30
OSHKOSH        SUNNY     43  35  73 SE5       30.01S
$$

WIZ032>034-041-042-053>061-241400-
SOUTHWEST WISCONSIN

CITY           SKY/WX    TMP DP  RH WIND       PRES   REMARKS
LA CROSSE      MOSUNNY   48  39  71 E9        29.92S
SPARTA         CLOUDY    42  37  84 E3        29.95F
VIROQUA        MOSUNNY   45  39  80 SE8       29.94S
BOSCOBEL       CLOUDY    49  42  77 NE5       29.96S
PRAIRIE DU CHI CLOUDY    47  39  73 E6        29.94S
PLATTEVILLE    CLOUDY    48  36  61 SE10      29.97S
$$

WIZ056-057-062-063-064-067-068-241400-
SOUTH CENTRAL WISCONSIN

CITY           SKY/WX    TMP DP  RH WIND       PRES   REMARKS
REEDSBURG      SUNNY     38  35  89 CALM      29.99R
BARABOO/DELLS  SUNNY     40  35  83 E5        29.99S
LONE ROCK      NOT AVBL
MINERAL POINT  CLOUDY    48  36  61 SE9       29.97F
MADISON        PTSUNNY   43  36  76 SE6       30.01S
MIDDLETON      SUNNY     43  38  82 SE6       30.01S
WATERTOWN      SUNNY     41  37  87 SE5       30.02S
MONROE         MOSUNNY   43  37  81 SE5       30.00S
JANESVILLE     MOSUNNY   45  37  76 SE7       30.01S
$$

WIZ051-052-058>065-066-070>072-241400-
SOUTHEAST WISCONSIN

CITY           SKY/WX    TMP DP  RH WIND       PRES   REMARKS
MILWAUKEE      MOSUNNY   46  39  76 E3        30.03S
WAUKESHA       SUNNY     39  36  87 NE5       30.04S
MILWAUKEE/TIMM SUNNY     43  34  70 CALM      30.04F
RACINE         SUNNY     46  40  79 NE3       30.05S
KENOSHA        SUNNY     45  39  79 E3        30.03S
FOND DU LAC    SUNNY     44  34  67 S7        30.02R
SHEBOYGAN      SUNNY     45  40  82 S7        30.03F
WEST BEND      SUNNY     37  36  93 CALM      30.03F
JUNEAU         SUNNY     40  35  83 SE3       30.03S
$$

LSZ147-162-241400-
LAKE SUPERIOR

STATION/POSITION TIME  TEMP    WIND        PRES    WAVE
                       AIR SEA DIR/SP/G            HT/PER
                 (UTC) (F)     (DEG/KT/KT) (MB)    (FT/S)
DEVILS ISLAND    1200   34      80/ 23/ 26 1016.5F
SAXON HARBOR     1230   37      60/  7/  8 1014.2F
$$

LMZ867-665-643>646-241400-
LAKE MICHIGAN

STATION/POSITION TIME  TEMP    WIND        PRES    WAVE
                       AIR SEA DIR/SP/G            HT/PER
                 (UTC) (F)     (DEG/KT/KT) (MB)    (FT/S)
CHAMBERS ISLAND  1240   38      40/  6/  9 1017.3F
N MID LAKE BUOY  1150   36 37   90/ 14/ 16 1019.1F   3/ 4
NORTHPORT PIER   1240   37     100/  9/ 12 1018.3R
KEWAUNEE LAKESHO 1230   41      90/  2/  5 1016.8F
SHEBOYGAN LAKESH 1200   42     110/  2/  3 1017.6R
PORT WASHINGTON  1240   47     110/  1/  2 1018.3S
MILWAUKEE LAKESH 1230   42      40/  3/  4   N/A
S MID LAKE BUOY  1150   42 40   50/  8/  8 1017.5R   2/ 5
KENOSHA   LAKESH 1200   43     360/  5/  6 1016.9
$$

TC  - TEMPERATURE IN CELSIUS
VSB - VISIBILITY IN STATUTE MILES
WCI - WIND CHILL INDEX
HX  - HEAT INDEX





USA.gov is the U.S. government's official web portal to all federal, state and local government web resources and services.